Starlink 3243

operational
NORAD ID: 51116 Int'l Des: 2022-005 Owner: SPXS Country: US Constellation: starlink
LEOCIRCULAR

关于 Starlink 3243

正在加载描述...

实时位置

正在加载3D地球...

即将过境

高度历史

Altitude vs Time

uPlot chart will show altitude changes over time

两行轨道根数

1 51116U 22005N 25351.22374842 .00001162 00000-0 91081-4 0 9994
2 51116 53.2173 299.2974 0001439 89.8289 270.2868 15.08843373216420
Epoch: Dec 17, 2025 • Age: 15 hours

当前状态

高度 540.9 km
速度 7.60 km/s
星下点 31.01°N, 58.81°E
发射日期 Jan 19, 2022
运行时间 3.9 years
类型 internet

技术详情

分类 Payload
质量 297.00 kg
干质量 275.00 kg
总质量 297.00 kg
长度 0.20 m
直径 2.80 m
跨度 9.00 m
形状 Box + pan
制造商 SPXS
平台类型 Starlink
阶段状态 In Orbit
所有者/国家 SPXS/US

大型星座

Loading constellations...